Location: Beddau
(51.5575°N, 3.3561°W)
Time: 14:08:27
(UTC+00:00)

Cosmos 2341 Rocket - Pass Details

Date: 03 March 2021
Orbit: 968 x 1005 km, 82.9° (Epoch: 11 April)

Event Time Altitude Azimuth Distance (km) Brightness Sun altitude
Rises 20:15:34 0° 200° (SSW) 3,698 7.1 -22.0°
Reaches altitude 10° 20:18:07 10° 204° (SSW) 2,748 6.4 -22.4°
Maximum altitude 20:24:21 61° 284° (WNW) 1,111 4.5 -23.3°
Drops below altitude 10° 20:30:35 10° 5° (N) 2,740 6.5 -24.2°
Sets 20:33:08 0° 9° (N) 3,687 7.2 -24.6°
